"read_dt","SO2 (ppb)","flags","PMT voltage (V)","lamp voltage (V)","lamp intensity (Hz)","internal temp (C)","react chamber temp (C)","sample flow (l/min)","pres (mmHg)","SO2 bkg (ppb)","SO2 coefficient"
2015-10-21 00:00:00,1914E-3,5C000400,-0724,0827,12231,028.8,045.4,0.255,742.5,01.18,0.508
2015-10-21 00:01:00,1933E-3,5C000400,-0724,0827,12214,028.7,045.5,0.255,742.7,01.18,0.508
2015-10-21 00:02:00,2144E-3,5C000400,-0724,0827,12162,028.8,045.4,0.255,742.4,01.18,0.508
2015-10-21 00:03:00,1820E-3,5C000400,-0724,0827,12165,028.8,045.5,0.255,742.5,01.18,0.508
2015-10-21 00:04:00,1938E-3,5C000400,-0724,0827,12344,028.7,045.5,0.254,742.6,01.18,0.508
2015-10-21 00:05:00,1933E-3,5C000400,-0724,0827,12237,028.8,045.5,0.255,742.7,01.18,0.508
2015-10-21 00:06:00,1831E-3,5C000400,-0724,0827,12230,028.8,045.5,0.255,742.7,01.18,0.508
2015-10-21 00:07:00,1919E-3,5C000400,-0724,0827,12265,028.8,045.5,0.254,742.6,01.18,0.508
2015-10-21 00:08:00,1920E-3,5C000400,-0724,0827,12170,028.8,045.5,0.255,742.6,01.18,0.508
2015-10-21 00:09:00,1924E-3,5C000400,-0724,0828,12247,028.8,045.5,0.255,742.7,01.18,0.508
2015-10-21 00:10:00,2012E-3,5C000400,-0724,0827,12207,028.7,045.5,0.254,742.7,01.18,0.508
2015-10-21 00:11:00,1926E-3,5C000400,-0724,0827,12402,028.8,045.5,0.255,742.7,01.18,0.508
2015-10-21 00:12:00,1905E-3,5C000400,-0724,0827,12184,028.8,045.5,0.255,742.7,01.18,0.508
2015-10-21 00:13:00,1921E-3,5C000400,-0724,0828,12145,028.8,045.5,0.254,742.6,01.18,0.508
2015-10-21 00:14:00,1945E-3,5C000400,-0724,0827,12356,028.8,045.5,0.255,742.6,01.18,0.508
2015-10-21 00:15:00,1922E-3,5C000400,-0724,0827,12280,028.9,045.5,0.255,742.7,01.18,0.508
2015-10-21 00:16:00,1910E-3,5C000400,-0724,0828,12136,028.9,045.5,0.255,742.6,01.18,0.508
2015-10-21 00:17:00,1802E-3,5C000400,-0724,0827,12076,028.9,045.5,0.254,742.6,01.18,0.508
2015-10-21 00:18:00,1963E-3,5C000400,-0724,0827,12167,028.9,045.5,0.255,742.6,01.18,0.508
2015-10-21 00:19:00,1859E-3,5C000400,-0724,0827,12151,028.9,045.5,0.255,742.6,01.18,0.508
2015-10-21 00:20:00,1974E-3,5C000400,-0724,0828,12245,028.9,045.5,0.254,742.6,01.18,0.508
2015-10-21 00:21:00,2056E-3,5C000400,-0724,0827,12160,028.8,045.5,0.255,742.5,01.18,0.508
2015-10-21 00:22:00,1879E-3,5C000400,-0724,0827,12159,028.9,045.5,0.255,742.6,01.18,0.508
2015-10-21 00:23:00,1876E-3,5C000400,-0724,0827,12338,028.8,045.5,0.254,742.5,01.18,0.508
2015-10-21 00:24:00,1815E-3,5C000400,-0724,0826,12199,028.8,045.5,0.255,742.5,01.18,0.508
2015-10-21 00:25:00,1975E-3,5C000400,-0724,0827,12281,028.8,045.5,0.254,742.5,01.18,0.508
2015-10-21 00:26:00,1952E-3,5C000400,-0724,0827,12269,028.8,045.5,0.254,742.5,01.18,0.508
2015-10-21 00:27:00,2088E-3,5C000400,-0724,0827,12289,028.8,045.5,0.255,742.5,01.18,0.508
2015-10-21 00:28:00,1930E-3,5C000400,-0724,0828,12249,028.8,045.5,0.255,742.6,01.18,0.508
2015-10-21 00:29:00,1980E-3,5C000400,-0724,0827,12245,028.8,045.5,0.254,742.5,01.18,0.508
2015-10-21 00:30:00,1931E-3,5C000400,-0724,0826,12196,028.7,045.5,0.255,742.4,01.18,0.508
2015-10-21 00:31:00,1977E-3,5C000400,-0724,0827,12178,028.8,045.5,0.255,742.5,01.18,0.508
2015-10-21 00:32:00,1961E-3,5C000400,-0724,0828,12093,028.8,045.5,0.254,742.5,01.18,0.508
2015-10-21 00:33:00,1868E-3,5C000400,-0724,0826,12158,028.7,045.5,0.255,742.5,01.18,0.508
2015-10-21 00:34:00,1806E-3,5C000400,-0724,0826,12237,028.7,045.5,0.255,742.5,01.18,0.508
2015-10-21 00:35:00,1965E-3,5C000400,-0724,0827,12236,028.7,045.5,0.254,742.5,01.18,0.508
2015-10-21 00:36:00,1851E-3,5C000400,-0724,0827,12234,028.8,045.5,0.255,742.5,01.18,0.508
2015-10-21 00:37:00,2069E-3,5C000400,-0724,0827,12047,028.7,045.4,0.255,742.5,01.18,0.508
2015-10-21 00:38:00,2026E-3,5C000400,-0724,0828,12240,028.7,045.4,0.255,742.5,01.18,0.508
2015-10-21 00:39:00,1979E-3,5C000400,-0724,0827,12242,028.7,045.4,0.255,742.5,01.18,0.508
2015-10-21 00:40:00,2114E-3,5C000400,-0724,0827,12079,028.7,045.5,0.255,742.5,01.18,0.508
2015-10-21 00:41:00,1973E-3,5C000400,-0724,0827,12266,028.6,045.5,0.255,742.5,01.18,0.508
2015-10-21 00:42:00,2038E-3,5C000400,-0724,0827,12241,028.7,045.4,0.254,742.5,01.18,0.508
2015-10-21 00:43:00,1972E-3,5C000400,-0724,0828,12193,028.7,045.4,0.255,742.5,01.18,0.508
2015-10-21 00:44:00,1913E-3,5C000400,-0724,0827,12334,028.7,045.5,0.255,742.5,01.18,0.508
2015-10-21 00:45:00,2016E-3,5C000400,-0724,0828,12302,028.6,045.5,0.254,742.5,01.18,0.508
2015-10-21 00:46:00,2055E-3,5C000400,-0724,0827,12219,028.6,045.5,0.255,742.5,01.18,0.508
2015-10-21 00:47:00,1987E-3,5C000400,-0724,0827,12273,028.6,045.5,0.255,742.6,01.18,0.508
2015-10-21 00:48:00,2002E-3,5C000400,-0724,0828,12312,028.7,045.5,0.255,742.5,01.18,0.508
2015-10-21 00:49:00,1820E-3,5C000400,-0724,0827,12237,028.7,045.5,0.255,742.5,01.18,0.508
2015-10-21 00:50:00,1937E-3,5C000400,-0724,0827,12168,028.6,045.5,0.255,742.5,01.18,0.508
2015-10-21 00:51:00,2007E-3,5C000400,-0724,0827,12158,028.6,045.5,0.255,742.5,01.18,0.508
2015-10-21 00:52:00,2056E-3,5C000400,-0724,0828,12115,028.7,045.4,0.255,742.5,01.18,0.508
2015-10-21 00:53:00,1920E-3,5C000400,-0724,0827,12100,028.7,045.4,0.255,742.5,01.18,0.508
2015-10-21 00:54:00,1813E-3,5C000400,-0724,0828,12322,028.6,045.4,0.255,742.5,01.18,0.508
2015-10-21 00:55:00,1963E-3,5C000400,-0724,0827,12271,028.6,045.5,0.254,742.5,01.18,0.508
2015-10-21 00:56:00,1964E-3,5C000400,-0724,0827,12320,028.6,045.4,0.255,742.5,01.18,0.508
2015-10-21 00:57:00,1935E-3,5C000400,-0724,0828,12248,028.6,045.4,0.255,742.4,01.18,0.508
2015-10-21 00:58:00,2132E-3,5C000400,-0724,0828,12339,028.6,045.5,0.255,742.4,01.18,0.508
2015-10-21 00:59:00,1863E-3,5C000400,-0724,0827,12222,028.6,045.4,0.255,742.4,01.18,0.508
2015-10-21 01:00:00,2032E-3,5C000400,-0724,0828,12176,028.5,045.5,0.255,742.5,01.18,0.508
2015-10-21 01:01:00,1884E-3,5C000400,-0724,0827,12261,028.6,045.5,0.255,742.5,01.18,0.508
2015-10-21 01:02:00,1995E-3,5C000400,-0724,0827,12237,028.6,045.5,0.255,742.5,01.18,0.508
2015-10-21 01:03:00,2004E-3,5C000400,-0724,0827,12192,028.6,045.5,0.255,742.5,01.18,0.508
2015-10-21 01:04:00,1942E-3,5C000400,-0724,0827,12294,028.6,045.5,0.255,742.5,01.18,0.508
2015-10-21 01:05:00,1911E-3,5C000400,-0724,0827,12227,028.6,045.5,0.255,742.5,01.18,0.508
2015-10-21 01:06:00,2024E-3,5C000400,-0724,0828,12224,028.6,045.5,0.255,742.5,01.18,0.508
2015-10-21 01:07:00,1807E-3,5C000400,-0724,0828,12241,028.6,045.4,0.255,742.5,01.18,0.508
2015-10-21 01:08:00,1869E-3,5C000400,-0724,0826,12158,028.6,045.5,0.255,742.5,01.18,0.508
2015-10-21 01:09:00,2092E-3,5C000400,-0724,0826,12169,028.5,045.4,0.255,742.5,01.18,0.508
2015-10-21 01:10:00,1956E-3,5C000400,-0724,0827,12209,028.5,045.5,0.255,742.5,01.18,0.508
2015-10-21 01:11:00,1891E-3,5C000400,-0724,0827,12208,028.5,045.4,0.255,742.5,01.18,0.508
2015-10-21 01:12:00,1869E-3,5C000400,-0724,0827,12216,028.6,045.5,0.255,742.4,01.18,0.508
2015-10-21 01:13:00,2035E-3,5C000400,-0724,0828,12177,028.6,045.5,0.255,742.5,01.18,0.508
2015-10-21 01:14:00,2072E-3,5C000400,-0724,0827,12212,028.6,045.5,0.255,742.4,01.18,0.508
2015-10-21 01:15:00,1957E-3,5C000400,-0724,0828,12166,028.6,045.4,0.255,742.4,01.18,0.508
2015-10-21 01:16:00,1902E-3,5C000400,-0724,0827,12180,028.6,045.4,0.255,742.4,01.18,0.508
2015-10-21 01:17:00,2036E-3,5C000400,-0724,0827,12281,028.6,045.4,0.255,742.4,01.18,0.508
2015-10-21 01:18:00,1944E-3,5C000400,-0724,0827,12320,028.5,045.4,0.255,742.4,01.18,0.508
2015-10-21 01:19:00,2063E-3,5C000400,-0724,0827,12302,028.5,045.5,0.255,742.5,01.18,0.508
2015-10-21 01:20:00,2008E-3,5C000400,-0724,0827,12164,028.5,045.5,0.255,742.5,01.18,0.508
2015-10-21 01:21:00,1940E-3,5C000400,-0724,0828,12277,028.5,045.5,0.255,742.4,01.18,0.508
2015-10-21 01:22:00,1935E-3,5C000400,-0724,0828,12135,028.5,045.5,0.255,742.4,01.18,0.508
2015-10-21 01:23:00,1939E-3,5C000400,-0724,0827,12185,028.5,045.4,0.255,742.4,01.18,0.508
2015-10-21 01:24:00,1807E-3,5C000400,-0724,0827,12234,028.5,045.4,0.255,742.4,01.18,0.508
2015-10-21 01:25:00,1866E-3,5C000400,-0724,0827,12194,028.4,045.4,0.255,742.4,01.18,0.508
2015-10-21 01:26:00,1974E-3,5C000400,-0724,0827,12160,028.5,045.4,0.255,742.4,01.18,0.508
2015-10-21 01:27:00,1846E-3,5C000400,-0724,0828,12290,028.5,045.5,0.255,742.4,01.18,0.508
2015-10-21 01:28:00,1892E-3,5C000400,-0724,0827,12156,028.4,045.5,0.255,742.4,01.18,0.508
2015-10-21 01:29:00,1958E-3,5C000400,-0724,0827,12199,028.5,045.5,0.255,742.4,01.18,0.508
2015-10-21 01:30:00,1903E-3,5C000400,-0724,0827,12181,028.5,045.5,0.255,742.4,01.18,0.508
2015-10-21 01:31:00,2057E-3,5C000400,-0724,0827,12206,028.5,045.5,0.255,742.3,01.18,0.508
2015-10-21 01:32:00,2100E-3,5C000400,-0724,0827,12305,028.4,045.4,0.255,742.3,01.18,0.508
2015-10-21 01:33:00,1916E-3,5C000400,-0724,0827,12245,028.5,045.4,0.255,742.4,01.18,0.508
2015-10-21 01:34:00,1972E-3,5C000400,-0724,0827,12133,028.5,045.4,0.255,742.4,01.18,0.508
2015-10-21 01:35:00,1901E-3,5C000400,-0724,0828,12279,028.4,045.5,0.255,742.4,01.18,0.508
2015-10-21 01:36:00,1964E-3,5C000400,-0724,0827,12119,028.4,045.4,0.255,742.4,01.18,0.508
2015-10-21 01:37:00,1978E-3,5C000400,-0724,0828,12349,028.5,045.4,0.255,742.3,01.18,0.508
2015-10-21 01:38:00,2076E-3,5C000400,-0724,0827,12249,028.5,045.4,0.255,742.4,01.18,0.508
2015-10-21 01:39:00,1970E-3,5C000400,-0724,0827,11970,028.4,045.5,0.255,742.4,01.18,0.508
2015-10-21 01:40:00,1956E-3,5C000400,-0724,0827,12193,028.4,045.4,0.255,742.3,01.18,0.508
2015-10-21 01:41:00,2002E-3,5C000400,-0724,0827,12156,028.4,045.4,0.255,742.4,01.18,0.508
2015-10-21 01:42:00,2031E-3,5C000400,-0724,0827,12210,028.4,045.4,0.255,742.4,01.18,0.508
2015-10-21 01:43:00,2022E-3,5C000400,-0724,0828,12231,028.4,045.4,0.255,742.4,01.18,0.508
2015-10-21 01:44:00,2118E-3,5C000400,-0724,0827,12251,028.4,045.4,0.255,742.3,01.18,0.508
2015-10-21 01:45:00,2059E-3,5C000400,-0724,0827,12107,028.4,045.5,0.255,742.4,01.18,0.508
2015-10-21 01:46:00,1942E-3,5C000400,-0724,0827,12276,028.4,045.4,0.255,742.3,01.18,0.508
2015-10-21 01:47:00,1952E-3,5C000400,-0724,0827,12229,028.4,045.4,0.255,742.4,01.18,0.508
2015-10-21 01:48:00,2125E-3,5C000400,-0724,0827,12214,028.3,045.4,0.255,742.4,01.18,0.508
2015-10-21 01:49:00,2055E-3,5C000400,-0724,0826,12303,028.3,045.5,0.255,742.4,01.18,0.508
2015-10-21 01:50:00,1963E-3,5C000400,-0724,0827,12091,028.4,045.4,0.255,742.4,01.18,0.508
2015-10-21 01:51:00,1778E-3,5C000400,-0724,0826,12326,028.3,045.4,0.255,742.3,01.18,0.508
2015-10-21 01:52:00,2073E-3,5C000400,-0724,0827,12270,028.3,045.5,0.255,742.3,01.18,0.508
2015-10-21 01:53:00,1983E-3,5C000400,-0724,0827,12161,028.3,045.4,0.255,742.3,01.18,0.508
2015-10-21 01:54:00,1877E-3,5C000400,-0724,0827,12252,028.3,045.4,0.255,742.4,01.18,0.508
2015-10-21 01:55:00,1989E-3,5C000400,-0724,0827,12288,028.3,045.4,0.255,742.4,01.18,0.508
2015-10-21 01:56:00,1930E-3,5C000400,-0724,0827,12345,028.3,045.4,0.256,742.3,01.18,0.508
2015-10-21 01:57:00,2003E-3,5C000400,-0724,0827,12125,028.3,045.4,0.255,742.3,01.18,0.508
2015-10-21 01:58:00,1864E-3,5C000400,-0724,0828,12227,028.3,045.4,0.256,742.3,01.18,0.508
2015-10-21 01:59:00,2032E-3,5C000400,-0724,0827,12298,028.3,045.4,0.256,742.3,01.18,0.508
2015-10-21 02:00:00,2025E-3,5C000400,-0724,0828,12184,028.2,045.5,0.255,742.3,01.18,0.508
2015-10-21 02:01:00,1904E-3,5C000400,-0724,0827,12191,028.2,045.4,0.255,742.4,01.18,0.508
2015-10-21 02:02:00,2043E-3,5C000400,-0724,0827,12255,028.3,045.5,0.255,742.4,01.18,0.508
2015-10-21 02:03:00,1995E-3,5C000400,-0724,0828,12252,028.3,045.4,0.255,742.3,01.18,0.508
2015-10-21 02:04:00,1973E-3,5C000400,-0724,0827,12161,028.3,045.5,0.255,742.4,01.18,0.508
2015-10-21 02:05:00,1993E-3,5C000400,-0724,0827,12172,028.3,045.4,0.255,742.4,01.18,0.508
2015-10-21 02:06:00,1895E-3,5C000400,-0724,0827,12306,028.3,045.4,0.255,742.4,01.18,0.508
2015-10-21 02:07:00,2130E-3,5C000400,-0724,0828,12245,028.3,045.4,0.255,742.4,01.18,0.508
2015-10-21 02:08:00,2064E-3,5C000400,-0724,0827,12234,028.3,045.4,0.256,742.4,01.18,0.508
2015-10-21 02:09:00,1968E-3,5C000400,-0724,0827,12149,028.3,045.4,0.255,742.4,01.18,0.508
2015-10-21 02:10:00,1973E-3,5C000400,-0724,0828,12271,028.3,045.4,0.255,742.4,01.18,0.508
2015-10-21 02:11:00,1918E-3,5C000400,-0724,0826,12276,028.3,045.5,0.255,742.4,01.18,0.508
2015-10-21 02:12:00,1849E-3,5C000400,-0724,0827,12055,028.3,045.4,0.255,742.4,01.18,0.508
2015-10-21 02:13:00,1918E-3,5C000400,-0724,0827,12169,028.2,045.4,0.255,742.4,01.18,0.508
2015-10-21 02:14:00,2005E-3,5C000400,-0724,0827,12125,028.3,045.4,0.255,742.4,01.18,0.508
2015-10-21 02:15:00,1935E-3,5C000400,-0724,0827,12206,028.2,045.4,0.256,742.4,01.18,0.508
2015-10-21 02:16:00,2018E-3,5C000400,-0724,0827,12273,028.2,045.4,0.255,742.4,01.18,0.508
2015-10-21 02:17:00,1960E-3,5C000400,-0724,0828,12166,028.2,045.4,0.255,742.3,01.18,0.508
2015-10-21 02:18:00,1997E-3,5C000400,-0724,0827,12173,028.3,045.5,0.256,742.4,01.18,0.508
2015-10-21 02:19:00,1988E-3,5C000400,-0724,0828,12212,028.3,045.5,0.255,742.3,01.18,0.508
2015-10-21 02:20:00,2144E-3,5C000400,-0724,0827,12190,028.2,045.4,0.255,742.3,01.18,0.508
2015-10-21 02:21:00,1952E-3,5C000400,-0724,0827,12331,028.2,045.4,0.256,742.3,01.18,0.508
2015-10-21 02:22:00,1932E-3,5C000400,-0724,0827,12293,028.2,045.4,0.256,742.3,01.18,0.508
2015-10-21 02:23:00,1998E-3,5C000400,-0724,0828,12238,028.2,045.5,0.255,742.3,01.18,0.508
2015-10-21 02:24:00,1969E-3,5C000400,-0724,0827,12187,028.2,045.4,0.256,742.3,01.18,0.508
2015-10-21 02:25:00,1884E-3,5C000400,-0724,0826,12259,028.2,045.4,0.256,742.3,01.18,0.508
2015-10-21 02:26:00,1864E-3,5C000400,-0724,0827,12090,028.2,045.5,0.255,742.3,01.18,0.508
2015-10-21 02:27:00,1946E-3,5C000400,-0724,0828,12261,028.2,045.5,0.255,742.3,01.18,0.508
2015-10-21 02:28:00,1907E-3,5C000400,-0724,0827,12183,028.2,045.4,0.256,742.3,01.18,0.508
2015-10-21 02:29:00,1881E-3,5C000400,-0724,0828,12295,028.2,045.5,0.255,742.3,01.18,0.508
2015-10-21 02:30:00,1894E-3,5C000400,-0724,0826,12162,028.2,045.5,0.256,742.3,01.18,0.508
2015-10-21 02:31:00,1949E-3,5C000400,-0724,0828,12351,028.3,045.5,0.256,742.3,01.18,0.508
2015-10-21 02:32:00,1928E-3,5C000400,-0724,0827,12217,028.2,045.4,0.255,742.3,01.18,0.508
2015-10-21 02:33:00,2035E-3,5C000400,-0724,0827,12182,028.2,045.4,0.255,742.3,01.18,0.508
2015-10-21 02:34:00,2021E-3,5C000400,-0724,0827,12276,028.2,045.4,0.256,742.3,01.18,0.508
2015-10-21 02:35:00,1851E-3,5C000400,-0724,0826,12277,028.2,045.4,0.256,742.3,01.18,0.508
2015-10-21 02:36:00,1888E-3,5C000400,-0724,0827,12211,028.2,045.5,0.255,742.3,01.18,0.508
2015-10-21 02:37:00,2000E-3,5C000400,-0724,0827,12197,028.2,045.4,0.255,742.3,01.18,0.508
2015-10-21 02:38:00,1994E-3,5C000400,-0724,0827,12233,028.2,045.4,0.256,742.3,01.18,0.508
2015-10-21 02:39:00,1897E-3,5C000400,-0724,0827,12293,028.2,045.5,0.255,742.3,01.18,0.508
2015-10-21 02:40:00,2059E-3,5C000400,-0724,0827,12349,028.2,045.5,0.255,742.3,01.18,0.508
2015-10-21 02:41:00,1981E-3,5C000400,-0724,0826,12114,028.1,045.4,0.256,742.3,01.18,0.508
2015-10-21 02:42:00,2006E-3,5C000400,-0724,0827,12151,028.2,045.5,0.255,742.3,01.18,0.508
2015-10-21 02:43:00,2078E-3,5C000400,-0724,0827,12299,028.1,045.4,0.256,742.3,01.18,0.508
2015-10-21 02:44:00,1974E-3,5C000400,-0724,0827,12221,028.2,045.5,0.256,742.3,01.18,0.508
2015-10-21 02:45:00,1942E-3,5C000400,-0724,0828,12329,028.1,045.5,0.255,742.3,01.18,0.508
2015-10-21 02:46:00,2002E-3,5C000400,-0724,0827,12255,028.1,045.4,0.256,742.3,01.18,0.508
2015-10-21 02:47:00,1975E-3,5C000400,-0724,0828,12199,028.2,045.5,0.256,742.3,01.18,0.508
2015-10-21 02:48:00,2054E-3,5C000400,-0724,0828,12270,028.3,045.4,0.256,742.4,01.18,0.508
2015-10-21 02:49:00,1965E-3,5C000400,-0724,0827,12211,028.3,045.4,0.255,742.4,01.18,0.508
2015-10-21 02:50:00,2033E-3,5C000400,-0724,0826,12256,028.2,045.4,0.256,742.4,01.18,0.508
2015-10-21 02:51:00,2137E-3,5C000400,-0724,0828,12263,028.2,045.5,0.256,742.4,01.18,0.508
2015-10-21 02:52:00,2000E-3,5C000400,-0724,0826,12264,028.2,045.4,0.255,742.4,01.18,0.508
2015-10-21 02:53:00,1853E-3,5C000400,-0724,0827,12258,028.2,045.4,0.256,742.4,01.18,0.508
2015-10-21 02:54:00,1932E-3,5C000400,-0724,0827,12135,028.2,045.5,0.256,742.3,01.18,0.508
2015-10-21 02:55:00,2044E-3,5C000400,-0724,0826,12216,028.2,045.4,0.256,742.3,01.18,0.508
2015-10-21 02:56:00,1856E-3,5C000400,-0724,0827,12255,028.2,045.4,0.256,742.3,01.18,0.508
2015-10-21 02:57:00,2049E-3,5C000400,-0724,0827,12321,028.2,045.4,0.256,742.2,01.18,0.508
2015-10-21 02:58:00,1962E-3,5C000400,-0724,0827,12318,028.1,045.4,0.256,742.2,01.18,0.508
2015-10-21 02:59:00,1875E-3,5C000400,-0724,0827,12217,028.2,045.4,0.256,742.2,01.18,0.508
2015-10-21 03:00:00,2083E-3,5C000400,-0724,0827,12191,028.2,045.5,0.256,742.3,01.18,0.508
2015-10-21 03:01:00,1879E-3,5C000400,-0724,0826,12216,028.1,045.5,0.255,742.3,01.18,0.508
2015-10-21 03:02:00,1968E-3,5C000400,-0724,0827,12246,028.1,045.4,0.256,742.3,01.18,0.508
2015-10-21 03:03:00,1941E-3,5C000400,-0724,0827,12202,028.1,045.4,0.256,742.3,01.18,0.508
2015-10-21 03:04:00,2044E-3,5C000400,-0724,0827,12281,028.1,045.4,0.255,742.2,01.18,0.508
2015-10-21 03:05:00,1965E-3,5C000400,-0724,0826,12252,028.1,045.4,0.256,742.2,01.18,0.508
2015-10-21 03:06:00,1932E-3,5C000400,-0724,0827,12196,028.1,045.4,0.256,742.2,01.18,0.508
2015-10-21 03:07:00,1920E-3,5C000400,-0724,0827,12163,028.1,045.4,0.256,742.2,01.18,0.508
2015-10-21 03:08:00,1981E-3,5C000400,-0724,0826,12279,028.0,045.5,0.255,742.2,01.18,0.508
2015-10-21 03:09:00,2058E-3,5C000400,-0724,0827,12212,028.1,045.5,0.256,742.2,01.18,0.508
2015-10-21 03:10:00,1939E-3,5C000400,-0724,0827,12344,028.1,045.4,0.256,742.2,01.18,0.508
2015-10-21 03:11:00,1919E-3,5C000400,-0724,0826,12199,028.1,045.4,0.255,742.2,01.18,0.508
2015-10-21 03:12:00,1973E-3,5C000400,-0724,0827,12176,028.1,045.5,0.256,742.2,01.18,0.508
2015-10-21 03:13:00,1975E-3,5C000400,-0724,0826,12268,028.0,045.4,0.256,742.2,01.18,0.508
2015-10-21 03:14:00,1807E-3,5C000400,-0724,0827,12284,028.1,045.4,0.256,742.2,01.18,0.508
2015-10-21 03:15:00,2106E-3,5C000400,-0724,0827,12282,028.0,045.5,0.256,742.2,01.18,0.508
2015-10-21 03:16:00,1914E-3,5C000400,-0724,0827,12219,028.1,045.4,0.256,742.2,01.18,0.508
2015-10-21 03:17:00,1858E-3,5C000400,-0724,0828,12219,028.0,045.4,0.256,742.2,01.18,0.508
2015-10-21 03:18:00,2071E-3,5C000400,-0724,0827,12156,028.0,045.4,0.255,742.2,01.18,0.508
2015-10-21 03:19:00,1950E-3,5C000400,-0724,0827,12240,028.1,045.5,0.256,742.2,01.18,0.508
2015-10-21 03:20:00,1932E-3,5C000400,-0724,0827,12306,028.1,045.5,0.256,742.2,01.18,0.508
2015-10-21 03:21:00,1806E-3,5C000400,-0724,0826,12166,028.1,045.4,0.256,742.2,01.18,0.508
2015-10-21 03:22:00,1901E-3,5C000400,-0724,0826,12277,028.0,045.4,0.255,742.3,01.18,0.508
2015-10-21 03:23:00,1976E-3,5C000400,-0724,0827,12281,028.0,045.5,0.256,742.2,01.18,0.508
2015-10-21 03:24:00,2048E-3,5C000400,-0724,0827,12039,028.0,045.5,0.256,742.2,01.18,0.508
2015-10-21 03:25:00,2063E-3,5C000400,-0724,0827,12378,028.0,045.5,0.255,742.2,01.18,0.508
2015-10-21 03:26:00,2049E-3,5C000400,-0724,0827,12104,028.1,045.5,0.256,742.2,01.18,0.508
2015-10-21 03:27:00,1913E-3,5C000400,-0724,0827,12282,028.0,045.4,0.256,742.3,01.18,0.508
2015-10-21 03:28:00,2022E-3,5C000400,-0724,0827,12249,028.0,045.4,0.256,742.3,01.18,0.508
2015-10-21 03:29:00,1975E-3,5C000400,-0724,0828,12137,028.1,045.4,0.256,742.3,01.18,0.508
2015-10-21 03:30:00,2034E-3,5C000400,-0724,0827,12184,028.0,045.4,0.256,742.3,01.18,0.508
2015-10-21 03:31:00,2049E-3,5C000400,-0724,0827,12276,028.0,045.5,0.256,742.3,01.18,0.508
2015-10-21 03:32:00,1993E-3,5C000400,-0724,0827,12216,028.1,045.5,0.255,742.3,01.18,0.508
2015-10-21 03:33:00,1927E-3,5C000400,-0724,0827,12159,028.1,045.4,0.256,742.3,01.18,0.508
2015-10-21 03:34:00,2106E-3,5C000400,-0724,0826,12303,028.0,045.4,0.256,742.3,01.18,0.508
2015-10-21 03:35:00,1846E-3,5C000400,-0724,0827,12058,028.0,045.4,0.256,742.3,01.18,0.508
2015-10-21 03:36:00,1969E-3,5C000400,-0724,0828,12253,028.0,045.4,0.256,742.3,01.18,0.508
2015-10-21 03:37:00,2050E-3,5C000400,-0724,0827,12118,028.0,045.4,0.256,742.3,01.18,0.508
2015-10-21 03:38:00,1881E-3,5C000400,-0724,0827,12266,028.1,045.5,0.256,742.3,01.18,0.508
2015-10-21 03:39:00,2020E-3,5C000400,-0724,0827,12239,028.0,045.4,0.256,742.3,01.18,0.508
2015-10-21 03:40:00,1943E-3,5C000400,-0724,0827,12209,028.0,045.4,0.256,742.3,01.18,0.508
2015-10-21 03:41:00,1918E-3,5C000400,-0724,0827,12375,028.0,045.4,0.256,742.4,01.18,0.508
2015-10-21 03:42:00,1984E-3,5C000400,-0724,0826,12106,028.0,045.5,0.256,742.3,01.18,0.508
2015-10-21 03:43:00,1960E-3,5C000400,-0724,0827,12282,028.0,045.4,0.256,742.3,01.18,0.508
2015-10-21 03:44:00,1949E-3,5C000400,-0724,0827,12087,028.0,045.5,0.256,742.3,01.18,0.508
2015-10-21 03:45:00,1983E-3,5C000400,-0724,0828,12078,028.0,045.4,0.256,742.3,01.18,0.508
2015-10-21 03:46:00,1991E-3,5C000400,-0724,0827,12186,028.0,045.5,0.256,742.3,01.18,0.508
2015-10-21 03:47:00,1940E-3,5C000400,-0724,0827,12394,028.0,045.5,0.256,742.3,01.18,0.508
2015-10-21 03:48:00,1946E-3,5C000400,-0724,0827,12213,027.9,045.4,0.256,742.3,01.18,0.508
2015-10-21 03:49:00,2010E-3,5C000400,-0724,0827,12246,028.0,045.5,0.256,742.3,01.18,0.508
2015-10-21 03:50:00,2067E-3,5C000400,-0724,0827,12249,028.0,045.4,0.256,742.3,01.18,0.508
2015-10-21 03:51:00,1973E-3,5C000400,-0724,0827,12162,027.9,045.5,0.256,742.3,01.18,0.508
2015-10-21 03:52:00,2025E-3,5C000400,-0724,0827,12126,028.0,045.4,0.256,742.4,01.18,0.508
2015-10-21 03:53:00,1862E-3,5C000400,-0724,0827,12298,027.9,045.4,0.256,742.4,01.18,0.508
2015-10-21 03:54:00,1767E-3,5C000400,-0724,0827,12182,027.9,045.4,0.256,742.4,01.18,0.508
2015-10-21 03:55:00,2032E-3,5C000400,-0724,0828,12233,027.9,045.4,0.256,742.4,01.18,0.508
2015-10-21 03:56:00,2032E-3,5C000400,-0724,0827,12267,027.9,045.4,0.256,742.4,01.18,0.508
2015-10-21 03:57:00,1950E-3,5C000400,-0724,0827,12334,027.9,045.4,0.256,742.4,01.18,0.508
2015-10-21 03:58:00,1940E-3,5C000400,-0724,0827,12278,027.9,045.4,0.256,742.4,01.18,0.508
2015-10-21 03:59:00,1943E-3,5C000400,-0724,0826,12169,027.9,045.5,0.256,742.4,01.18,0.508
2015-10-21 04:00:00,1866E-3,5C000400,-0724,0826,12134,027.9,045.4,0.256,742.4,01.18,0.508
2015-10-21 04:01:00,2071E-3,5C000400,-0724,0827,12369,028.0,045.5,0.256,742.4,01.18,0.508
2015-10-21 04:02:00,1874E-3,5C000400,-0724,0827,12299,027.9,045.4,0.256,742.4,01.18,0.508
2015-10-21 04:03:00,2045E-3,5C000400,-0724,0827,12328,027.9,045.4,0.256,742.4,01.18,0.508
2015-10-21 04:04:00,1937E-3,5C000400,-0724,0828,12179,027.9,045.4,0.256,742.4,01.18,0.508
2015-10-21 04:05:00,2009E-3,5C000400,-0724,0826,12169,027.9,045.5,0.256,742.4,01.18,0.508
2015-10-21 04:06:00,1969E-3,5C000400,-0724,0827,12314,027.9,045.5,0.256,742.4,01.18,0.508
2015-10-21 04:07:00,2001E-3,5C000400,-0724,0826,12130,028.0,045.5,0.256,742.4,01.18,0.508
2015-10-21 04:08:00,1968E-3,5C000400,-0724,0827,12221,027.9,045.5,0.256,742.4,01.18,0.508
2015-10-21 04:09:00,2042E-3,5C000400,-0724,0827,12199,027.9,045.4,0.256,742.4,01.18,0.508
2015-10-21 04:10:00,1843E-3,5C000400,-0724,0827,12126,027.9,045.4,0.256,742.4,01.18,0.508
2015-10-21 04:11:00,1864E-3,5C000400,-0724,0827,12279,027.9,045.4,0.256,742.4,01.18,0.508
2015-10-21 04:12:00,1947E-3,5C000400,-0724,0827,12186,027.9,045.5,0.256,742.4,01.18,0.508
2015-10-21 04:13:00,1993E-3,5C000400,-0724,0826,12209,027.9,045.5,0.256,742.4,01.18,0.508
2015-10-21 04:14:00,1989E-3,5C000400,-0724,0827,12317,027.9,045.4,0.256,742.4,01.18,0.508
2015-10-21 04:15:00,1806E-3,5C000400,-0724,0827,12189,027.9,045.4,0.256,742.4,01.18,0.508
2015-10-21 04:16:00,2015E-3,5C000400,-0724,0827,12321,027.9,045.4,0.256,742.4,01.18,0.508
2015-10-21 04:17:00,2078E-3,5C000400,-0724,0826,12248,027.9,045.5,0.256,742.4,01.18,0.508
2015-10-21 04:18:00,1935E-3,5C000400,-0724,0826,12259,027.8,045.4,0.256,742.4,01.18,0.508
2015-10-21 04:19:00,1836E-3,5C000400,-0724,0827,12197,027.9,045.5,0.256,742.4,01.18,0.508
2015-10-21 04:20:00,1968E-3,5C000400,-0724,0827,12217,027.9,045.4,0.256,742.4,01.18,0.508